AirNav   Duncan Aviation - Near you to keep you 
flying
 
 713 users online  

KCHN Wauchula Municipal Airport
Wauchula, Florida, USA

GOING TO WAUCHULA?


FAA INFORMATION EFFECTIVE 15 JULY 2021

Location

FAA Identifier: CHN
Lat/Long: 27-30-53.7000N 081-52-49.7000W
27-30.895000N 081-52.828333W
27.5149167,-81.8804722
(estimated)
Elevation: 107.8 ft. / 32.9 m (surveyed)
Variation: 04W (2000)
From city: 5 miles SW of WAUCHULA, FL
Time zone: UTC -4 (UTC -5 during Standard Time)
Zip code: 33873

Airport Operations

Airport use: Open to the public
Activation date: 11/1983
Control tower: no
ARTCC: MIAMI CENTER
FSS: SAINT PETERSBURG FLIGHT SERVICE STATION
NOTAMs facility: PIE (NOTAM-D service available)
Attendance: 1600-2000
Wind indicator: lighted
Segmented circle: yes
Lights: ACTVT REIL RWY 18 & 36; MIRL RWY 18/36 - CTAF.
Beacon: white-green (lighted land airport)
Operates sunset to sunrise.

Airport Communications

CTAF: 122.9
WX AWOS-3 at AVO (19 nm E): 118.725 (863-453-4223)
  • APCH/DEP SVC PRVDD BY MIAMI ARTCC ON FREQS 134.55/257.7 (AVON PARK RCAG).

Nearby radio navigation aids

VOR radial/distance  VOR name  Freq  Var
LALr165/29.2LAKELAND VORTAC116.0001E
PGDr015/(36.4)PUNTA GORDA VOR110.2006W
SRQr085/36.9SARASOTA VOR/DME117.0005W

Airport Services

Fuel available: 100LL
100LL:FUEL 24 HR CREDIT CARD SVC AVBL.
Parking: tiedowns
Airframe service: MINOR
Powerplant service: MINOR
Bottled oxygen: NONE
Bulk oxygen: NONE

Runway Information

Runway 18/36

Dimensions: 4005 x 75 ft. / 1221 x 23 m
Surface: asphalt, in excellent condition
Weight bearing capacity: 
PCN 7 /F/B/Y/T
Single wheel: 24.0
Double wheel: 39.0
Runway edge lights: medium intensity
RUNWAY 18  RUNWAY 36
Latitude: 27-31.224823N27-30.563918N
Longitude: 081-52.828178W081-52.827343W
Elevation: 99.3 ft.103.3 ft.
Traffic pattern: leftleft
Runway heading: 184 magnetic, 180 true004 magnetic, 360 true
Markings: nonprecision, in good conditionnonprecision, in good condition
Visual slope indicator: 4-light PAPI on left (4.00 degrees glide path)4-light PAPI on left (3.00 degrees glide path)
Runway end identifier lights: yesyes
Touchdown point: yes, no lightsyes, no lights
Obstructions: 25 ft. trees, 600 ft. from runway, 130 ft. left of centerline, 24:1 slope to clear5 ft. brush, 205 ft. from runway, 225 ft. right of centerline, 1:1 slope to clear

Airport Ownership and Management from official FAA records

Ownership: Publicly-owned
Owner: CITY OF WAUCHULA
126 S 7TH AVE.
WAUCHULA, FL 33873
Phone 863-773-3131
CTC PERSON: OLIVIA MINSHEW
Manager: WARD GRIMES
1202 MAURICE SONNY CLAVEL RD.
WAUCHULA, FL 33873
Phone (863) 773-3115
AIRPORT PHYSICAL ADDRESS: 1202 MAURICE SONNY CLAVEL ROAD.

Airport Operational Statistics

Aircraft based on the field: 24
Single engine airplanes: 18
Multi engine airplanes: 2
Helicopters: 4
    
Aircraft operations: avg 22/day *
59% transient general aviation
41% local general aviation
* for 12-month period ending 25 July 2018

Additional Remarks

FOR CD CTC MIAMI ARTCC AT 305-716-1731.

Instrument Procedures

NOTE: All procedures below are presented as PDF files. If you need a reader for these files, you should download the free Adobe Reader.

NOT FOR NAVIGATION. Please procure official charts for flight.
FAA instrument procedures published for use from 15 July 2021 at 0901Z to 12 August 2021 at 0900z.

 
IAPs - Instrument Approach Procedures
RNAV (GPS) RWY 18   download (235KB)
RNAV (GPS) RWY 36   download (223KB)
NOTE: Special Take-Off Minimums/Departure Procedures apply   download (162KB)

Other nearby airports with instrument procedures:

KAVO - Avon Park Executive Airport (19 nm E)
X06 - Arcadia Municipal Airport (19 nm S)
KBOW - Bartow Executive Airport (26 nm N)
X07 - Lake Wales Municipal Airport (27 nm NE)
KSEF - Sebring Regional Airport (29 nm E)
 
Loc | Ops | Rwys | IFR | FBO | Links
Com | Nav | Svcs | Stats | Notes


 
Area around KCHN (Wauchula Municipal Airport)
 
Road maps at: MapQuest Bing Google
 
Aerial photo
WARNING: Photo may not be current or correct
Aerial photo of KCHN (Wauchula Municipal Airport)
Photo by Joshua C. Smith
Photo taken 16-Feb-2015
looking east.

Do you have a better or more recent aerial photo of Wauchula Municipal Airport that you would like to share? If so, please send us your photo.

 
Sectional chart

 
Airport diagram
CAUTION: Diagram may not be current
Diagram of KCHN (Wauchula Municipal Airport)
 
Airport distance calculator
Flying to Wauchula Municipal Airport? Find the distance to fly.

From to KCHN

Sunrise and sunset
Times for 04-Aug-2021
 Local
(UTC-4)
 Zulu
(UTC)
Morning civil twilight06:2810:28
Sunrise06:5310:53
Sunset20:1400:14
Evening civil twilight20:3900:39

Current date and time
Zulu (UTC)  04-Aug-2021 04:23:15
Local (UTC-4)  04-Aug-2021 00:23:15
 
METAR
KBOW 
26nm N 
040355Z AUTO 16006KT 10SM -RA FEW065 SCT095 23/23 A3003 RMK AO2
KX07 
27nm NE 
040355Z AUTO 19004KT 10SM FEW039 SCT050 OVC110 23/23 A3004 RMK A01 P0001
KLAL 
28nm N 
040355Z AUTO 17005KT 10SM -DZ CLR 23/23 A3002 RMK AO2 PNO
KSEF 
29nm E 
040355Z AUTO 16004KT 10SM CLR 23/22 A3004 RMK AO2 T02310221
KPCM 
33nm NW 
040355Z AUTO 18004KT 10SM CLR 24/24 A3003 RMK AO2
KGIF 
34nm N 
040353Z AUTO 19008KT 10SM FEW070 SCT095 BKN120 24/23 A3003 RMK AO2 RAE49 SLP166 P0017 T02390228
KPGD 
36nm S 
040353Z AUTO 13005KT 10SM CLR 24/24 A3003 RMK AO2 SLP168 T02440239
KSRQ 
37nm W 
040353Z AUTO 14006KT 10SM FEW020 SCT029 26/24 A2998 RMK AO2 RAB02E12 SLP152 P0000 T02560244
KTPF 
39nm NW 
040355Z AUTO 21008KT 10SM SCT008 BKN080 OVC095 25/23 A3001 RMK AO2 P0002
KVDF 
39nm NW 
040355Z AUTO 20004KT 10SM -RA SCT009 SCT048 BKN120 25/25 A3002 RMK AO2
TAF
KLAL 
28nm N 
031734Z 0318/0418 23007KT 6SM SHRA VCTS BKN030CB OVC100 FM040000 25006KT P6SM VCSH SCT020 BKN040 FM040400 VRB03KT P6SM SCT020 BKN250 FM041200 19005KT 6SM SHRA VCTS BKN030CB BKN100 FM041500 23007KT 5SM SHRA VCTS BKN020CB OVC100
NOTAMs
Click for the latest NOTAMs
NOTAMs are issued by the DoD/FAA and will open in a separate window not controlled by AirNav.

 

 
 

FBO, Fuel Providers, and Aircraft Ground Support

  
 Business Name 
 
 Contact 
 
 Services / Description 
 
Fuel Prices
 
Comments
  
Wauchula Municipal Airport 122.90
863-773-3115
[web site]
[email]
Airport management, Aviation fuel, Aircraft parking (ramp or tiedown), Hangar leasing / sales, Pilots lounge / snooze room, Public telephone, Computerized weather, ...
More info and photos of Wauchula Municipal Airport
Phillips 66
100LL
SS $4.14 
GUARANTEED
 
   5 read write
SS=Self service
Update Fuel Prices
 

Would you like to see your business listed on this page?

 If your business provides an interesting product or service to pilots, flight crews, aircraft, or users of the Wauchula Municipal Airport, you should consider listing it here.  To start the listing process, click on the button below
 
Add a business
 

Other Pages about Wauchula Municipal Airport

www.cityofwauchula.com/wauchula-municipal-airport
 
Update a link
 
Copyright © AirNav, LLC. All rights reserved. Privacy Policy  Contact